GEFSNE_850_meantemp_030.txt.gz
Temperature
5 4 3 3 2 1 0 -1 -2 -4 -3 -2 -2 -3 -3 -3 -4 -4 -5 -5 -5 -5 -5 -5 -6 -5 -5 -5 -5 -5 -5 -5 -5 -4 -4 -4 -3 -3
4 3 3 2 1 1 -0 -1 -2 -4 -5 -4 -4 -4 -5 -5 -5 -5 -6 -6 -6 -6 -6 -6 -6 -6 -6 -6 -6 -5 -5 -5 -5 -5 -4 -4 -4 -3
3 2 2 1 0 -0 -1 -2 -3 -4 -5 -5 -5 -6 -6 -6 -6 -6 -7 -6 -7 -7 -7 -6 -6 -6 -6 -6 -6 -6 -6 -5 -5 -5 -5 -4 -4 -4
2 2 1 0 -0 -1 -2 -3 -4 -5 -6 -7 -7 -7 -7 -7 -7 -7 -7 -7 -7 -7 -7 -7 -7 -6 -6 -6 -6 -6 -6 -6 -5 -5 -5 -5 -5 -5
1 1 -0 -1 -1 -3 -4 -5 -6 -6 -7 -8 -8 -8 -7 -7 -8 -7 -7 -7 -7 -8 -7 -7 -7 -7 -7 -7 -6 -6 -6 -6 -6 -6 -6 -6 -6 -5
1 -0 -1 -2 -3 -4 -5 -6 -7 -8 -8 -8 -8 -8 -8 -8 -8 -8 -8 -8 -8 -8 -8 -8 -7 -7 -7 -7 -7 -7 -7 -7 -7 -6 -6 -6 -6 -6
-0 -1 -2 -3 -4 -6 -6 -7 -7 -8 -8 -8 -9 -9 -9 -8 -8 -8 -9 -9 -9 -8 -8 -8 -7 -7 -6 -6 -6 -7 -7 -7 -7 -6 -6 -6 -6 -6
-1 -2 -3 -4 -5 -6 -7 -7 -8 -8 -8 -9 -9 -9 -9 -9 -9 -9 -9 -9 -9 -8 -8 -8 -8 -7 -6 -7 -7 -7 -7 -7 -7 -6 -6 -6 -6 -5
-2 -3 -4 -5 -6 -7 -8 -8 -8 -9 -9 -9 -9 -9 -9 -9 -9 -9 -9 -9 -9 -9 -9 -9 -8 -8 -7 -8 -8 -7 -7 -7 -7 -6 -6 -6 -6 -5
-3 -5 -6 -7 -7 -8 -8 -9 -9 -9 -9 -9 -9 -9 -9 -9 -9 -9 -9 -9 -9 -8 -8 -9 -9 -8 -8 -7 -7 -7 -6 -7 -7 -7 -6 -6 -6 -6
-5 -6 -7 -8 -8 -8 -8 -9 -9 -9 -9 -9 -9 -9 -9 -8 -9 -9 -9 -9 -9 -9 -8 -9 -9 -9 -9 -7 -6 -6 -7 -7 -6 -6 -6 -5 -5 -5
-6 -6 -7 -8 -8 -9 -9 -9 -9 -9 -9 -9 -8 -8 -8 -8 -8 -9 -9 -10 -10 -10 -9 -9 -10 -11 -10 -8 -7 -6 -6 -5 -5 -5 -5 -4 -5 -6
-8 -7 -8 -8 -9 -9 -9 -9 -9 -9 -9 -9 -9 -8 -7 -7 -7 -8 -9 -10 -10 -10 -9 -10 -10 -11 -11 -11 -8 -6 -6 -5 -5 -4 -4 -4 -5 -6
-9 -9 -9 -9 -9 -9 -9 -9 -9 -9 -9 -9 -9 -8 -8 -8 -8 -8 -8 -8 -9 -9 -8 -9 -10 -11 -11 -11 -10 -8 -6 -6 -6 -5 -5 -5 -6 -6
-9 -9 -9 -9 -9 -9 -9 -9 -9 -9 -9 -9 -9 -8 -8 -8 -8 -8 -8 -8 -8 -7 -8 -8 -9 -10 -10 -11 -10 -9 -9 -7 -6 -6 -7 -7 -7 -6
-9 -9 -9 -9 -9 -9 -9 -9 -9 -9 -9 -9 -9 -8 -8 -8 -8 -8 -8 -9 -9 -7 -6 -8 -9 -9 -10 -10 -10 -9 -9 -8 -7 -7 -7 -7 -7 -6
-10 -10 -9 -9 -9 -9 -9 -9 -9 -8 -8 -8 -8 -8 -8 -8 -8 -8 -8 -9 -10 -9 -7 -7 -7 -8 -9 -9 -9 -8 -8 -8 -8 -8 -8 -7 -6 -5
-10 -10 -10 -10 -10 -10 -9 -9 -9 -8 -8 -8 -8 -8 -8 -8 -8 -8 -8 -9 -10 -9 -8 -8 -8 -9 -9 -8 -8 -8 -8 -8 -8 -7 -7 -7 -6 -5
-10 -10 -10 -10 -10 -10 -9 -9 -9 -8 -8 -8 -8 -8 -8 -8 -8 -8 -8 -9 -9 -9 -8 -8 -9 -9 -9 -8 -8 -7 -8 -7 -7 -7 -7 -7 -6 -5
-10 -10 -10 -10 -10 -10 -9 -9 -9 -8 -8 -8 -8 -8 -8 -8 -8 -8 -8 -9 -9 -9 -9 -8 -8 -8 -8 -8 -8 -6 -6 -7 -7 -7 -6 -6 -6 -5
-10 -10 -10 -10 -10 -9 -9 -9 -8 -8 -8 -8 -8 -8 -8 -8 -8 -8 -8 -8 -9 -9 -9 -8 -8 -8 -8 -8 -8 -7 -6 -6 -6 -6 -6 -6 -5 -5
-10 -10 -10 -10 -9 -9 -9 -8 -8 -8 -8 -8 -8 -8 -8 -8 -8 -8 -8 -8 -8 -8 -8 -8 -8 -8 -8 -8 -8 -7 -7 -6 -5 -5 -5 -5 -5 -5
-10 -10 -10 -9 -9 -9 -8 -8 -8 -8 -8 -8 -8 -8 -8 -8 -8 -8 -8 -8 -8 -8 -8 -8 -7 -7 -7 -7 -7 -7 -7 -6 -6 -5 -5 -5 -5 -5

GEFSNE_850_meantemp_036.txt.gz
Temperature
7 6 6 5 4 4 3 2 1 -1 -1 -0 0 -0 -1 -2 -2 -2 -3 -3 -3 -4 -4 -5 -5 -5 -6 -5 -5 -5 -5 -4 -4 -4 -4 -3 -3 -3
6 5 5 4 3 3 2 1 -0 -1 -3 -2 -2 -2 -2 -2 -3 -4 -4 -4 -4 -4 -5 -6 -6 -6 -6 -6 -6 -5 -5 -5 -5 -4 -4 -4 -3 -3
5 4 4 3 2 2 1 0 -1 -2 -3 -3 -3 -3 -3 -3 -3 -4 -4 -5 -5 -5 -5 -6 -6 -6 -6 -6 -6 -6 -6 -6 -5 -5 -5 -4 -4 -4
3 3 2 2 1 1 0 -1 -1 -2 -3 -4 -4 -4 -4 -4 -5 -5 -5 -6 -6 -5 -6 -6 -6 -6 -6 -6 -6 -6 -6 -6 -6 -6 -6 -5 -5 -5
2 2 1 0 0 -0 -1 -2 -2 -3 -4 -5 -6 -6 -6 -6 -6 -6 -7 -6 -6 -6 -6 -6 -6 -6 -6 -6 -6 -6 -6 -6 -6 -6 -6 -6 -6 -5
1 0 -0 -1 -1 -2 -2 -3 -4 -5 -6 -6 -7 -7 -7 -7 -7 -8 -8 -7 -7 -6 -6 -6 -6 -6 -6 -6 -6 -6 -6 -6 -6 -6 -6 -6 -6 -6
-0 -1 -1 -1 -2 -3 -4 -5 -6 -6 -7 -7 -8 -8 -8 -8 -8 -8 -9 -8 -7 -6 -6 -6 -6 -6 -5 -5 -6 -6 -6 -6 -7 -7 -7 -7 -6 -6
-1 -1 -2 -2 -3 -3 -5 -6 -7 -7 -8 -8 -8 -9 -9 -8 -9 -9 -9 -9 -9 -8 -8 -8 -7 -7 -6 -6 -6 -6 -7 -7 -7 -7 -7 -7 -7 -6
-2 -2 -2 -3 -4 -5 -5 -6 -7 -8 -8 -9 -9 -9 -9 -9 -9 -9 -9 -9 -9 -8 -8 -8 -7 -7 -6 -7 -6 -7 -6 -6 -7 -7 -7 -7 -7 -7
-2 -3 -4 -4 -5 -6 -7 -8 -8 -8 -8 -8 -9 -9 -9 -9 -9 -9 -9 -9 -9 -7 -8 -9 -7 -7 -7 -7 -6 -6 -6 -6 -6 -7 -7 -7 -7 -7
-3 -4 -5 -6 -6 -7 -9 -9 -9 -8 -8 -9 -9 -9 -9 -9 -9 -9 -9 -9 -10 -8 -8 -9 -8 -8 -8 -6 -5 -6 -6 -6 -6 -6 -6 -7 -7 -7
-4 -5 -6 -7 -8 -9 -9 -9 -9 -9 -9 -9 -8 -8 -8 -8 -8 -8 -9 -10 -10 -10 -8 -9 -9 -10 -10 -8 -6 -6 -6 -6 -6 -6 -6 -6 -6 -7
-6 -6 -6 -7 -8 -9 -9 -9 -9 -9 -9 -9 -8 -8 -7 -7 -7 -7 -8 -9 -10 -10 -8 -10 -10 -10 -11 -10 -8 -6 -6 -6 -6 -6 -5 -6 -6 -7
-8 -7 -8 -9 -9 -9 -9 -9 -9 -9 -9 -9 -8 -8 -8 -7 -7 -7 -7 -8 -8 -8 -8 -8 -9 -10 -11 -11 -10 -7 -6 -6 -6 -6 -6 -6 -6 -6
-9 -9 -9 -10 -10 -9 -9 -9 -9 -9 -9 -8 -8 -8 -8 -7 -7 -7 -7 -7 -7 -7 -7 -8 -9 -9 -10 -11 -10 -8 -7 -6 -6 -6 -6 -7 -6 -6
-9 -9 -9 -9 -9 -9 -9 -9 -9 -9 -9 -9 -8 -8 -8 -8 -8 -8 -8 -8 -8 -7 -6 -7 -8 -9 -9 -9 -10 -9 -7 -8 -7 -7 -7 -7 -6 -6
-10 -9 -9 -9 -9 -8 -8 -8 -8 -8 -8 -8 -8 -8 -8 -8 -8 -8 -8 -8 -8 -8 -7 -6 -7 -8 -8 -9 -9 -8 -7 -7 -7 -7 -8 -8 -7 -7
-10 -9 -9 -9 -9 -9 -9 -8 -8 -8 -8 -8 -8 -8 -8 -8 -8 -8 -8 -8 -8 -8 -7 -7 -7 -8 -8 -8 -8 -8 -8 -8 -7 -8 -8 -8 -8 -7
-10 -10 -9 -9 -9 -9 -9 -9 -8 -8 -8 -8 -8 -8 -8 -8 -8 -8 -8 -8 -8 -8 -8 -8 -8 -9 -10 -10 -8 -8 -8 -8 -8 -8 -8 -8 -8 -7
-10 -10 -10 -9 -9 -9 -9 -9 -8 -8 -8 -8 -8 -8 -8 -8 -8 -8 -8 -8 -9 -8 -8 -7 -8 -8 -9 -9 -9 -7 -6 -7 -8 -8 -7 -7 -7 -6
-10 -10 -10 -9 -9 -9 -9 -8 -8 -8 -8 -8 -8 -8 -8 -8 -8 -8 -8 -8 -8 -9 -9 -8 -7 -8 -8 -8 -8 -8 -6 -6 -7 -7 -7 -7 -7 -6
-10 -9 -9 -9 -9 -9 -8 -8 -8 -8 -8 -8 -8 -8 -8 -8 -8 -8 -8 -8 -8 -8 -8 -8 -7 -7 -8 -8 -8 -8 -6 -5 -5 -5 -6 -6 -6 -6
-10 -9 -9 -9 -9 -8 -8 -8 -8 -8 -8 -8 -8 -7 -7 -7 -7 -8 -8 -8 -8 -8 -8 -8 -7 -7 -7 -8 -8 -8 -7 -6 -6 -5 -5 -5 -5 -5

GEFSNE_850_meantemp_042.txt.gz
Temperature
8 7 7 7 6 6 5 5 4 3 3 3 3 2 1 1 0 -0 -1 -1 -1 -1 -1 -1 -2 -2 -3 -4 -4 -4 -4 -4 -4 -4 -4 -3 -3 -2
7 6 5 5 5 4 4 3 2 2 1 1 1 0 -0 -0 -0 -1 -1 -2 -2 -2 -2 -2 -3 -3 -4 -4 -5 -5 -5 -5 -5 -4 -4 -4 -3 -3
5 5 4 3 3 3 2 2 1 0 -0 -0 -1 -1 -1 -1 -1 -2 -2 -3 -3 -3 -3 -3 -4 -4 -5 -5 -5 -5 -5 -5 -5 -5 -5 -4 -4 -4
4 3 3 3 2 2 1 0 -0 -1 -2 -2 -2 -2 -2 -3 -3 -3 -4 -4 -4 -4 -4 -4 -4 -5 -5 -5 -5 -6 -6 -6 -6 -5 -5 -5 -5 -5
3 2 2 2 1 1 -0 -1 -2 -2 -3 -3 -3 -4 -4 -4 -4 -5 -5 -5 -5 -5 -4 -4 -5 -5 -5 -6 -6 -6 -6 -6 -6 -6 -6 -6 -6 -5
2 2 2 1 0 -0 -1 -2 -2 -3 -4 -4 -5 -6 -6 -6 -6 -6 -7 -6 -6 -5 -5 -5 -5 -5 -5 -5 -5 -5 -5 -5 -5 -6 -6 -6 -6 -6
1 1 1 -0 -1 -2 -2 -3 -4 -4 -5 -6 -6 -7 -7 -7 -7 -8 -8 -8 -7 -6 -5 -5 -5 -5 -5 -5 -5 -5 -5 -5 -6 -6 -6 -6 -6 -6
1 0 -1 -2 -2 -3 -3 -4 -5 -6 -6 -7 -8 -8 -8 -8 -8 -9 -9 -9 -9 -8 -7 -7 -6 -6 -5 -5 -5 -5 -5 -6 -6 -6 -7 -7 -6 -6
-1 -1 -2 -3 -3 -4 -4 -4 -5 -6 -7 -8 -8 -8 -8 -8 -9 -9 -9 -9 -9 -8 -8 -8 -6 -6 -6 -6 -5 -5 -6 -6 -6 -6 -6 -7 -7 -7
-2 -3 -3 -3 -4 -4 -5 -6 -6 -7 -7 -8 -8 -8 -9 -9 -9 -9 -9 -9 -9 -8 -8 -8 -6 -6 -6 -6 -6 -5 -5 -6 -6 -6 -6 -7 -7 -7
-3 -4 -4 -4 -5 -6 -8 -8 -8 -8 -8 -8 -8 -8 -8 -8 -9 -9 -9 -9 -9 -8 -8 -8 -7 -7 -7 -6 -5 -5 -6 -6 -6 -6 -6 -6 -6 -7
-4 -5 -5 -6 -7 -8 -9 -9 -8 -8 -8 -8 -7 -7 -8 -8 -8 -8 -8 -9 -9 -9 -8 -9 -8 -9 -9 -7 -6 -6 -6 -6 -6 -6 -6 -6 -6 -7
-5 -6 -6 -7 -8 -9 -9 -9 -9 -9 -9 -8 -8 -7 -7 -7 -7 -8 -8 -8 -9 -9 -8 -9 -9 -9 -10 -10 -7 -6 -6 -6 -6 -6 -6 -6 -6 -7
-7 -7 -7 -8 -9 -9 -9 -8 -9 -9 -8 -8 -8 -7 -7 -7 -7 -7 -8 -8 -8 -8 -8 -9 -9 -9 -10 -10 -9 -7 -6 -6 -6 -6 -6 -6 -7 -7
-8 -8 -9 -8 -8 -8 -8 -8 -8 -8 -8 -8 -8 -8 -8 -7 -7 -7 -7 -7 -7 -7 -7 -8 -8 -9 -10 -10 -9 -8 -7 -6 -6 -6 -6 -7 -7 -7
-8 -8 -8 -8 -8 -8 -8 -8 -8 -8 -8 -8 -8 -8 -8 -8 -8 -8 -8 -7 -7 -6 -6 -7 -8 -8 -9 -9 -9 -8 -7 -7 -6 -6 -7 -7 -6 -6
-8 -8 -8 -8 -8 -8 -8 -8 -8 -8 -8 -8 -8 -8 -8 -8 -7 -8 -7 -7 -8 -7 -6 -6 -7 -7 -8 -8 -8 -7 -7 -7 -7 -7 -8 -8 -7 -6
-8 -8 -8 -8 -8 -8 -8 -8 -8 -8 -8 -8 -8 -8 -8 -8 -8 -7 -7 -7 -7 -7 -7 -7 -7 -7 -7 -8 -7 -8 -7 -7 -7 -7 -8 -9 -8 -6
-9 -9 -9 -9 -9 -9 -8 -8 -8 -8 -8 -8 -8 -8 -8 -8 -8 -7 -7 -7 -7 -7 -7 -7 -8 -9 -10 -10 -8 -7 -8 -8 -8 -8 -8 -8 -8 -6
-9 -9 -9 -9 -9 -9 -8 -8 -8 -8 -8 -8 -8 -8 -8 -8 -7 -7 -7 -7 -8 -8 -7 -7 -8 -8 -9 -9 -9 -7 -7 -8 -8 -8 -8 -7 -7 -6
-9 -9 -9 -9 -9 -9 -8 -8 -8 -8 -8 -8 -8 -8 -8 -8 -8 -7 -8 -8 -8 -8 -8 -8 -7 -8 -8 -9 -9 -8 -6 -6 -7 -8 -7 -7 -7 -7
-9 -9 -9 -9 -9 -8 -8 -8 -8 -8 -8 -8 -8 -8 -8 -8 -8 -8 -8 -8 -8 -8 -8 -8 -7 -8 -8 -9 -9 -8 -6 -5 -5 -6 -6 -6 -7 -7
-9 -9 -9 -9 -9 -8 -8 -8 -8 -8 -8 -8 -8 -8 -8 -8 -8 -8 -8 -8 -8 -8 -8 -8 -8 -8 -8 -8 -8 -8 -7 -6 -6 -5 -4 -5 -6 -6

GEFSNE_850_meantemp_048.txt.gz
Temperature
10 10 9 9 9 8 8 7 7 6 4 4 4 4 3 3 2 2 2 1 1 1 1 1 1 1 1 1 0 0 -0 -1 -2 -2 -2 -2 -2 -2
9 9 9 8 7 7 6 6 5 4 4 3 3 3 2 2 1 1 0 0 0 -0 -0 -0 -0 -0 -1 -1 -1 -2 -2 -3 -3 -3 -3 -3 -3 -3
9 8 8 7 6 5 5 4 3 3 3 2 2 1 1 0 -0 -0 -1 -1 -1 -1 -1 -1 -1 -2 -2 -2 -3 -3 -3 -4 -4 -4 -4 -4 -3 -3
8 7 6 5 4 3 3 3 2 2 2 1 1 0 -0 -1 -1 -1 -2 -2 -2 -2 -2 -2 -2 -2 -3 -3 -3 -4 -4 -5 -5 -5 -5 -4 -4 -4
6 5 4 3 3 2 2 1 1 1 1 0 -1 -1 -2 -2 -2 -3 -3 -3 -3 -3 -3 -3 -3 -3 -4 -4 -4 -5 -5 -5 -5 -5 -5 -5 -5 -5
3 3 2 2 1 1 1 1 0 -0 -1 -1 -2 -3 -3 -4 -4 -5 -5 -5 -5 -4 -4 -4 -4 -4 -4 -4 -4 -5 -5 -5 -5 -5 -5 -5 -5 -5
1 1 1 1 0 0 -0 -1 -1 -2 -3 -3 -4 -5 -5 -6 -6 -7 -7 -7 -6 -5 -5 -5 -5 -5 -4 -4 -4 -4 -5 -5 -5 -5 -5 -5 -6 -6
0 0 0 -0 -1 -1 -1 -2 -2 -3 -4 -5 -6 -6 -6 -7 -7 -8 -8 -8 -8 -6 -7 -7 -6 -6 -5 -5 -5 -4 -5 -5 -5 -5 -6 -6 -6 -6
-0 -1 -1 -1 -2 -2 -3 -3 -3 -4 -5 -6 -6 -7 -7 -7 -8 -8 -8 -8 -8 -7 -8 -7 -6 -6 -6 -5 -5 -5 -5 -5 -5 -5 -6 -6 -6 -6
-2 -2 -2 -3 -3 -3 -4 -4 -5 -5 -6 -7 -7 -7 -7 -8 -8 -8 -8 -8 -8 -7 -8 -8 -7 -7 -6 -6 -5 -4 -5 -5 -5 -5 -6 -6 -6 -6
-3 -3 -3 -4 -4 -5 -5 -5 -6 -7 -7 -6 -7 -7 -7 -7 -8 -8 -8 -8 -8 -7 -7 -8 -7 -8 -7 -5 -4 -4 -5 -5 -5 -5 -5 -6 -6 -6
-4 -4 -4 -5 -6 -6 -7 -7 -7 -7 -7 -7 -7 -7 -7 -7 -7 -7 -8 -8 -8 -8 -7 -8 -8 -9 -8 -6 -5 -5 -5 -5 -5 -5 -5 -5 -5 -6
-5 -6 -6 -6 -7 -7 -8 -8 -7 -7 -7 -7 -7 -7 -7 -7 -7 -7 -7 -8 -8 -8 -7 -8 -8 -8 -9 -8 -6 -5 -5 -5 -5 -5 -5 -5 -6 -6
-7 -7 -7 -7 -7 -7 -7 -7 -7 -7 -7 -7 -7 -7 -7 -7 -7 -7 -7 -7 -7 -7 -7 -7 -8 -8 -9 -9 -8 -6 -6 -6 -6 -5 -6 -6 -6 -6
-7 -7 -7 -7 -7 -7 -7 -7 -7 -7 -7 -7 -7 -7 -7 -7 -7 -7 -7 -7 -6 -6 -6 -7 -7 -8 -8 -9 -8 -7 -6 -6 -5 -6 -6 -7 -6 -6
-7 -7 -7 -7 -7 -7 -7 -7 -7 -7 -7 -7 -7 -7 -7 -7 -7 -7 -7 -6 -6 -6 -6 -6 -7 -7 -8 -8 -8 -7 -7 -7 -6 -6 -7 -7 -7 -7
-8 -8 -8 -8 -8 -8 -8 -8 -8 -8 -8 -8 -8 -7 -7 -7 -7 -7 -7 -7 -7 -6 -6 -6 -7 -8 -8 -8 -8 -7 -7 -7 -7 -8 -8 -8 -7 -7
-8 -8 -8 -8 -8 -8 -8 -8 -8 -8 -8 -8 -8 -8 -7 -7 -7 -7 -7 -7 -7 -7 -7 -7 -7 -8 -9 -8 -7 -7 -7 -8 -8 -8 -8 -9 -8 -7
-8 -8 -8 -8 -8 -8 -8 -8 -8 -8 -8 -8 -8 -8 -8 -8 -7 -7 -7 -8 -8 -8 -7 -8 -8 -9 -9 -9 -8 -8 -8 -8 -8 -8 -8 -8 -8 -7
-9 -9 -9 -8 -8 -8 -8 -8 -8 -8 -8 -8 -8 -8 -8 -8 -8 -8 -8 -8 -8 -8 -8 -8 -8 -8 -9 -9 -9 -8 -7 -8 -8 -8 -8 -8 -7 -6
-9 -9 -9 -9 -8 -8 -8 -8 -8 -8 -8 -8 -8 -8 -8 -8 -8 -8 -8 -8 -8 -8 -8 -8 -8 -8 -9 -9 -9 -8 -7 -7 -8 -8 -8 -7 -7 -7
-9 -9 -9 -9 -9 -8 -8 -8 -8 -8 -8 -8 -8 -8 -8 -8 -8 -8 -8 -8 -8 -8 -8 -8 -8 -8 -8 -8 -8 -8 -8 -7 -7 -7 -7 -7 -7 -7
-9 -9 -9 -9 -9 -8 -8 -8 -8 -8 -8 -8 -8 -8 -8 -8 -8 -8 -8 -8 -8 -8 -8 -8 -8 -8 -8 -8 -8 -8 -8 -8 -7 -7 -7 -6 -7 -6